Weather History for Marshfield, WI

Change the Weather History Date:

Sunday, February 9, 2014

  Actual Average Record
Temperature  
Mean Temperature 0 °F -  
Max Temperature 9 °F 26 °F 44 °F (1966)
Min Temperature -8 °F 2 °F -32 °F (1933)
Degree Days  
Heating Degree Days 64    
Moisture  
Dew Point -4 °F    
Average Humidity 71    
Maximum Humidity 88    
Minimum Humidity 55    
Precipitation  
Precipitation 0.00 in - - ()
Sea Level Pressure  
Sea Level Pressure 30.22 in    
Wind  
Wind Speed 9 mph (NW)    
Max Wind Speed 16 mph    
Max Gust Speed -    
Averages and records for this station are not official NWS values.
T = Trace of Precipitation, MM = Missing Value Source: NWS Daily Summary

Daily Weather History Graph

Daily Weather History Graph

Search for Another Location

Airport:

Trip Planner

Search our weather history database for the weather conditions in past years. The results will help you decide how hot, cold, wet, or windy it might be!

Date:

Astronomy

Feb. 09, 2014 Rise Set
Actual Time 7:09 AM CST 5:21 PM CST
Civil Twilight 6:39 AM CST 5:51 PM CST
Nautical Twilight 6:04 AM CST 6:25 PM CST
Astronomical Twilight 5:30 AM CST 6:59 PM CST
Moon 12:56 PM CST (2/9) 3:18 AM CST (2/9)
Length of Visible Light 11h 12m
Length of Day
10h 11m
Waxing Gibbous, 77% of the Moon is Illuminated
Feb 9
Waxing Gibbous
Feb 14
Full
Feb 22
Last Quarter
Mar 1
New
Mar 8
First Quarter

Hourly Weather History & Observations

Time (CST) Temp. Windchill Dew Point Humidity Pressure Visibility Wind Dir Wind Speed Gust Speed Precip Events Conditions
12:54 AM 8.1 °F -3.2 °F 3.9 °F 83% 30.15 in - WNW 6.9 mph - 0.00 in   Overcast
1:54 AM 8.1 °F -3.2 °F 3.9 °F 83% 30.15 in - WNW 6.9 mph - N/A   Overcast
2:54 AM 9.0 °F -4.2 °F 3.9 °F 80% 30.14 in - NW 9.2 mph - N/A   Overcast
3:54 AM 9.0 °F -4.2 °F 3.9 °F 80% 30.15 in - NW 9.2 mph - 0.00 in   Overcast
4:54 AM 8.1 °F -5.3 °F 3.0 °F 80% 30.15 in - NW 9.2 mph - 0.00 in Snow Light Snow
5:54 AM 7.0 °F -4.5 °F 3.0 °F 84% 30.15 in - NW 6.9 mph - 0.00 in Snow Light Snow
6:54 AM 6.1 °F -4.3 °F 1.9 °F 83% 30.16 in - WNW 5.8 mph - 0.00 in   Overcast
7:54 AM 3.9 °F -9.4 °F 1.0 °F 88% 30.18 in - WNW 8.1 mph - 0.00 in   Overcast
8:14 AM 3.9 °F -9.4 °F -0.0 °F 84% 30.09 in - WNW 8.1 mph - N/A   Scattered Clouds
8:54 AM 5.0 °F -9.1 °F -0.0 °F 80% 30.19 in - NW 9.2 mph - N/A   Clear
9:54 AM 5.0 °F -11.6 °F -0.9 °F 76% 30.19 in - NW 12.7 mph - N/A   Clear
10:54 AM 7.0 °F -7.5 °F -0.0 °F 73% 30.20 in - WNW 10.4 mph - N/A   Partly Cloudy
11:54 AM 7.0 °F -8.3 °F -2.0 °F 67% 30.21 in - WNW 11.5 mph - N/A   Clear
12:54 PM 7.0 °F -11.0 °F -2.9 °F 64% 30.19 in - WNW 16.1 mph - N/A   Clear
1:54 PM 7.0 °F -11.0 °F -4.0 °F 61% 30.19 in - NW 16.1 mph - N/A   Clear
2:54 PM 7.0 °F -9.8 °F -5.1 °F 58% 30.21 in - NW 13.8 mph - N/A   Clear
3:54 PM 6.1 °F -9.5 °F -7.1 °F 55% 30.22 in - WNW 11.5 mph - N/A   Clear
4:54 PM 3.9 °F -13.0 °F -8.0 °F 58% 30.25 in - WNW 12.7 mph - N/A   Clear
5:54 PM 1.9 °F -11.8 °F -9.9 °F 58% 30.27 in - WNW 8.1 mph - N/A   Clear
6:54 PM -0.0 °F -11.6 °F -11.0 °F 60% 30.30 in - WNW 5.8 mph - N/A   Clear
7:54 PM -0.9 °F -15.3 °F -11.9 °F 60% 30.31 in - WNW 8.1 mph - N/A   Clear
8:54 PM -4.0 °F -17.8 °F -14.1 °F 62% 30.33 in - WNW 6.9 mph - N/A   Clear
9:54 PM -4.0 °F -21.2 °F -14.1 °F 62% 30.33 in - NW 10.4 mph - N/A   Clear
10:54 PM -8.0 °F -27.1 °F -16.1 °F 68% 30.34 in - NW 11.5 mph - N/A   Clear
11:54 PM -8.0 °F -22.5 °F -16.1 °F 68% 30.36 in - WNW 6.9 mph - N/A   Clear